Current weather by "City, St" or "zip code"  
 

Current Conditions: North Adams Harriman-and-West Airport, MA

Mostly Cloudy


72.0 F

Last Updated on Oct 21 2021, 1:52 pm EDT
Humidity: 41%
Wind Speed: W 8.1 mph
Barometer 29.91 in
Dewpoint: 46.9 F
Visibility: 10.00 mi
Precip: --
Heat Index: NA
Wind Chill: NA
Current conditions at:

North Adams Harriman-and-West Airport, MA (KAQW)

Lat: 42.69731 Lon: 73.16955

Local Radar Image active severe weather and emergency alerts image image weather storm and storm spotter reports image weather observation monitoring service image
Local
Radar
Active
Alerts
Storm Reports Obs
Monitoring

Sign-up For Email & Text Message Weather Alert Notification Services



Advertise Here

Observation History for North Adams Harriman-and-West Airport, MA


Time Wind
(mph)
Vis
(mi)
Weather Precip (in) Temperature (F) Relative
Humidity
Wind
Chill
(F)
Heat
Index
(F)
Pressure
Air Dwpt altimeter
(in)
sea level
(mb)
Rmks
1:52 pm EDT W 8.1 10.00 Mostly Cloudy -- 72.0 46.9 41% NA NA 29.91 1012.7
12:52 pm EDT N 0.0 10.00 Fair -- 72.0 50.0 46% NA NA 29.93 1013.3
11:52 am EDT E 6.9 10.00 Fair -- 67.0 51.1 57% NA NA 29.96 1014.3
10:52 am EDT E 6.9 10.00 Fair -- 62.0 48.9 62% 62 NA 29.98 1015.0
9:52 am EDT N 0.0 10.00 Fair -- 58.0 48.0 70% NA NA 29.99 1015.7
8:52 am EDT N 0.0 10.00 Mostly Cloudy -- 52.0 48.0 86% NA NA 30.01 1016.3
7:52 am EDT N 0.0 10.00 Fair -- 48.0 45.0 89% NA NA 30.00 1016.0
6:52 am EDT N 0.0 10.00 Fair -- 49.0 45.0 86% NA NA 30.00 1015.9
5:52 am EDT N 0.0 10.00 Fair -- 49.0 46.0 90% NA NA 30.00 1015.9
4:52 am EDT N 0.0 10.00 Fair -- 51.0 46.0 83% NA NA 29.99 1015.7
3:52 am EDT N 0.0 10.00 Mostly Cloudy -- 54.0 46.9 77% NA NA 29.98 1015.3
2:52 am EDT W 9.2 10.00 Mostly Cloudy -- 59.0 46.0 62% 57 NA 30.00 1015.6
1:52 am EDT W 8.1 10.00 Overcast -- 61.0 46.9 60% 60 NA 30.00 1015.7
12:52 am EDT SW 8.1 10.00 Overcast -- 63.0 46.0 54% 63 NA 30.00 1015.9
11:52 pm EDT SW 6.9 10.00 Overcast -- 62.0 46.0 56% 62 NA 30.00 1015.7
10:52 pm EDT SW 5.8 10.00 Overcast -- 62.0 46.9 58% 62 NA 30.00 1016.0
9:52 pm EDT SW 3.5 10.00 Overcast Trace 63.0 48.9 60% NA NA 30.00 1015.8
8:52 pm EDT W 5.8 10.00 Light Rain Trace 65.0 48.0 54% NA NA 29.98 1015.3
7:52 pm EDT W 9.2 10.00 Overcast -- 67.0 46.0 47% NA NA 29.98 1015.0
6:52 pm EDT W 9.2 10.00 Mostly Cloudy -- 66.0 45.0 47% NA NA 29.97 1014.8
5:52 pm EDT W 10.4 10.00 Fair -- 67.0 46.9 49% NA NA 29.95 1014.1
4:52 pm EDT W 15.0 G 23.0 10.00 Fair -- 71.0 46.9 42% NA NA 29.94 1013.6
3:52 pm EDT W 18.4 G 24.2 10.00 Fair -- 72.0 48.9 44% NA NA 29.94 1013.6
2:52 pm EDT W 12.7 10.00 Fair -- 70.0 51.1 51% NA NA 29.94 1013.8

Regional Weather Observation


North Adams Harriman-and-West Airport, MA (KAQW)

Mostly Cloudy
72.0 F

Albany International Airport, NY (KALB)

Mostly Cloudy
69.0 F

Schenectady Airport, NY (KSCH)

Fair
70.0 F

Pittsfield Municipal Airport, MA (KPSF)

A Few Clouds
69.0 F

Glens Falls, Floyd Bennett Memorial Airport, NY (KGFL)

Mostly Cloudy
61.0 F

Rutland-Southern Vermont Regional Airport, VT (KRUT)

Light Rain
60.0 F

Advertise Here


Advertise Here